Visibility
15.0 15.0 15.0 15.0 15.0 15.0 15.0 15.0 15.0 15.0 15.0 14.3 3.6 4.5 11.3 5.7 15.0 15.0 15.0 15.0 15.0 15.0 15.0 15.0 15.0 15.0 15.0 15.0 15.0 15.0 15.0 15.0 15.0 14.7 15.0 15.0 15.0 15.0 15.0 15.0 15.0 13.9 5.0 5.4 4.3 1.6 5.4 15.0 15.0 15.0 15.0 15.0 15.0 15.0
15.0 15.0 15.0 15.0 15.0 15.0 15.0 15.0 15.0 15.0 15.0 5.9 3.0 3.8 3.9 8.7 15.0 15.0 15.0 15.0 15.0 15.0 15.0 15.0 15.0 15.0 15.0 15.0 15.0 15.0 15.0 15.0 15.0 15.0 13.0 12.4 14.1 14.8 14.8 15.0 15.0 1.5 14.4 13.5 15.0 15.0 15.0 15.0 15.0 15.0 15.0 15.0 15.0 15.0
15.0 15.0 15.0 15.0 15.0 15.0 15.0 15.0 15.0 15.0 15.0 14.2 8.3 6.3 3.7 15.0 15.0 15.0 15.0 15.0 15.0 15.0 15.0 15.0 15.0 15.0 15.0 15.0 15.0 15.0 15.0 15.0 15.0 15.0 15.0 14.9 15.0 15.0 15.0 15.0 15.0 15.0 15.0 15.0 15.0 15.0 15.0 15.0 15.0 5.2 14.5 15.0 15.0 15.0
15.0 15.0 15.0 15.0 15.0 15.0 15.0 15.0 15.0 15.0 15.0 9.1 6.1 5.1 6.4 6.9 15.0 15.0 15.0 15.0 15.0 15.0 15.0 15.0 15.0 15.0 15.0 15.0 15.0 15.0 15.0 15.0 15.0 15.0 13.9 8.9 15.0 15.0 15.0 15.0 15.0 15.0 15.0 15.0 15.0 15.0 15.0 15.0 15.0 15.0 8.3 12.8 15.0 15.0
13.6 15.0 15.0 15.0 15.0 15.0 15.0 15.0 15.0 15.0 5.6 14.6 5.8 5.7 10.2 15.0 15.0 15.0 15.0 15.0 15.0 15.0 15.0 15.0 15.0 15.0 15.0 15.0 15.0 15.0 15.0 15.0 15.0 15.0 15.0 15.0 15.0 15.0 15.0 15.0 15.0 15.0 15.0 15.0 15.0 15.0 15.0 15.0 15.0 15.0 15.0 14.8 14.4 15.0
14.3 15.0 15.0 15.0 15.0 15.0 15.0 15.0 15.0 13.1 10.7 9.1 5.3 9.7 15.0 15.0 15.0 15.0 15.0 15.0 15.0 15.0 15.0 15.0 15.0 15.0 15.0 15.0 15.0 15.0 15.0 15.0 15.0 15.0 14.9 15.0 15.0 15.0 9.0 8.8 15.0 15.0 15.0 15.0 15.0 15.0 15.0 15.0 15.0 15.0 15.0 15.0 15.0 15.0
7.3 12.7 15.0 15.0 15.0 15.0 15.0 14.8 3.1 5.9 8.1 14.7 8.6 11.1 15.0 15.0 15.0 15.0 15.0 15.0 15.0 15.0 15.0 9.8 15.0 15.0 15.0 15.0 15.0 15.0 15.0 15.0 15.0 13.2 15.0 15.0 15.0 15.0 4.7 4.5 15.0 15.0 15.0 15.0 15.0 0.3 0.2 15.0 15.0 15.0 15.0 15.0 15.0 15.0
10.2 13.9 15.0 15.0 15.0 15.0 15.0 13.8 2.6 11.4 9.4 7.9 5.7 7.0 10.2 15.0 15.0 15.0 15.0 15.0 15.0 15.0 15.0 11.4 2.3 13.3 15.0 15.0 9.3 15.0 15.0 15.0 15.0 15.0 15.0 15.0 15.0 15.0 2.0 15.0 15.0 15.0 15.0 0.3 15.0 15.0 7.6 15.0 15.0 15.0 15.0 15.0 15.0 15.0
13.3 15.0 15.0 15.0 15.0 15.0 15.0 7.8 5.7 8.2 4.4 4.7 4.2 5.1 7.4 8.3 15.0 15.0 15.0 15.0 15.0 15.0 15.0 15.0 11.6 9.0 15.0 15.0 15.0 15.0 15.0 9.6 4.5 15.0 15.0 15.0 14.9 2.8 15.0 15.0 15.0 15.0 0.9 0.0 15.0 15.0 15.0 15.0 15.0 15.0 15.0 15.0 15.0 12.9
15.0 15.0 12.4 15.0 15.0 15.0 7.2 5.8 6.0 7.4 6.8 5.5 6.9 10.3 5.2 15.0 15.0 15.0 15.0 15.0 15.0 15.0 15.0 15.0 15.0 15.0 15.0 15.0 13.4 14.2 14.9 4.1 1.0 14.5 15.0 15.0 14.6 15.0 15.0 15.0 15.0 15.0 15.0 14.8 2.6 15.0 15.0 15.0 15.0 15.0 15.0 15.0 15.0 6.7
15.0 15.0 15.0 15.0 15.0 7.9 3.6 14.0 12.3 8.1 5.4 6.2 3.1 0.1 6.1 8.4 15.0 15.0 15.0 15.0 15.0 15.0 15.0 15.0 15.0 1.6 15.0 13.8 12.1 15.0 10.6 6.5 13.8 5.5 15.0 15.0 14.8 15.0 15.0 15.0 15.0 15.0 15.0 15.0 15.0 15.0 15.0 15.0 4.5 0.5 11.8 15.0 15.0 15.0
15.0 15.0 15.0 15.0 11.7 3.1 12.8 12.9 10.1 8.1 6.7 15.0 11.7 13.6 7.2 13.2 15.0 15.0 12.4 15.0 15.0 15.0 15.0 15.0 12.9 15.0 15.0 15.0 15.0 15.0 13.3 12.7 13.5 14.8 5.3 14.6 15.0 15.0 15.0 15.0 15.0 15.0 15.0 4.3 7.0 15.0 15.0 15.0 15.0 15.0 15.0 15.0 14.8 15.0
15.0 15.0 15.0 15.0 11.5 3.7 15.0 15.0 15.0 14.9 15.0 11.9 15.0 14.4 6.9 2.0 15.0 15.0 15.0 13.5 7.6 15.0 0.8 0.2 0.1 15.0 15.0 15.0 5.7 15.0 6.1 6.1 3.7 1.1 9.8 15.0 15.0 15.0 15.0 15.0 3.1 4.1 10.3 0.1 0.3 0.2 0.4 0.1 0.0 0.0 0.0 0.0 0.1 0.1
15.0 15.0 11.6 4.4 9.0 9.1 12.4 7.4 8.9 12.8 14.8 12.0 2.7 0.1 0.4 0.3 1.5 15.0 15.0 15.0 15.0 15.0 15.0 15.0 13.4 15.0 15.0 15.0 15.0 15.0 13.9 13.6 0.7 1.0 15.0 15.0 15.0 15.0 15.0 15.0 0.0 4.2 7.4 0.0 0.0 0.0 0.0 0.0 0.0 0.0 0.0 0.0 0.0 0.0
15.0 13.3 3.3 3.9 10.8 6.9 6.2 5.5 8.4 9.7 9.0 0.1 15.0 8.4 0.1 7.4 2.5 0.5 15.0 13.2 13.1 15.0 15.0 15.0 15.0 15.0 0.5 2.9 14.1 11.6 0.2 2.0 15.0 15.0 15.0 5.8 15.0 15.0 15.0 15.0 0.0 15.0 15.0 6.0 0.1 0.0 0.0 0.0 0.2 15.0 15.0 15.0 15.0 15.0
15.0 3.5 3.9 4.2 5.5 4.9 4.1 5.4 5.2 5.4 0.0 3.1 15.0 2.3 6.4 6.7 0.3 15.0 15.0 15.0 15.0 15.0 15.0 15.0 14.7 15.0 15.0 15.0 9.9 11.5 15.0 15.0 15.0 15.0 11.3 15.0 15.0 15.0 15.0 15.0 0.0 15.0 15.0 15.0 15.0 15.0 15.0 15.0 15.0 15.0 15.0 15.0 15.0 15.0
4.0 0.8 5.4 5.2 4.0 5.0 4.2 4.5 7.9 0.0 0.2 5.5 1.3 13.9 15.0 14.7 13.9 14.6 15.0 15.0 15.0 15.0 15.0 15.0 15.0 15.0 15.0 9.0 11.5 15.0 15.0 15.0 15.0 0.1 11.8 15.0 15.0 15.0 15.0 15.0 1.0 0.1 15.0 15.0 15.0 15.0 15.0 15.0 4.9 15.0 15.0 15.0 15.0 15.0
0.6 3.5 5.0 4.4 5.3 6.7 3.8 0.1 0.0 0.1 0.1 0.5 7.4 0.5 0.1 0.2 0.2 0.3 15.0 15.0 15.0 15.0 15.0 15.0 15.0 15.0 13.1 15.0 15.0 15.0 0.2 15.0 3.3 12.3 14.7 15.0 15.0 15.0 15.0 15.0 15.0 0.2 0.0 0.5 15.0 15.0 0.2 0.1 0.1 0.1 0.1 0.4 0.2 2.8
5.2 7.0 6.7 7.6 15.0 5.5 0.1 0.0 0.1 3.9 0.2 0.3 0.1 0.1 0.1 0.1 15.0 15.0 15.0 15.0 15.0 15.0 15.0 11.0 15.0 5.2 15.0 15.0 15.0 12.6 0.1 14.9 14.4 15.0 15.0 15.0 15.0 15.0 15.0 15.0 15.0 0.6 9.0 6.8 6.8 0.0 0.0 6.8 0.1 0.0 0.0 0.6 0.1 0.1
10.1 6.9 7.7 7.5 6.0 2.3 0.3 0.0 11.3 5.2 0.3 0.1 0.1 0.1 0.1 0.2 0.8 15.0 15.0 15.0 15.0 15.0 12.8 0.2 15.0 15.0 15.0 15.0 15.0 8.8 9.3 15.0 15.0 15.0 15.0 15.0 15.0 5.7 15.0 15.0 15.0 12.2 14.9 11.1 0.9 10.9 4.3 5.2 15.0 13.3 15.0 15.0 15.0 15.0
2.8 0.6 3.4 4.7 0.2 3.8 0.4 0.2 0.8 0.2 0.1 0.1 0.1 0.3 0.2 0.2 0.1 0.5 6.9 15.0 15.0 6.1 10.4 15.0 15.0 15.0 15.0 15.0 15.0 15.0 15.0 15.0 15.0 15.0 15.0 15.0 15.0 15.0 7.7 6.5 8.8 14.8 15.0 15.0 15.0 15.0 15.0 15.0 15.0 12.4 7.0 15.0 15.0 15.0
0.2 5.6 0.1 2.4 0.7 0.2 0.2 0.2 0.2 0.1 0.2 0.1 0.1 0.2 0.2 0.5 0.7 0.7 2.5 5.3 2.6 15.0 15.0 15.0 15.0 15.0 15.0 15.0 15.0 15.0 15.0 15.0 15.0 15.0 15.0 15.0 15.0 15.0 14.8 11.4 8.3 15.0 15.0 15.0 13.2 13.6 14.1 7.5 8.8 7.7 7.1 13.2 13.3 13.3
5.0 7.1 0.2 0.1 0.2 0.2 0.1 0.1 0.2 0.1 0.2 0.1 0.1 0.1 0.1 0.3 1.2 2.1 3.7 15.0 11.1 13.3 9.2 11.7 10.3 9.6 14.3 8.7 14.9 15.0 15.0 13.1 15.0 15.0 15.0 15.0 15.0 7.9 8.2 11.9 11.2 15.0 15.0 15.0 10.7 5.6 8.9 14.5 15.0 11.7 6.7 6.8 6.4 6.6
4.7 0.3 0.1 0.2 0.2 0.2 0.2 0.1 0.2 0.2 0.1 0.1 0.1 0.2 0.4 0.3 0.2 1.0 4.2 6.1 15.0 5.1 8.2 14.7 8.8 13.0 9.7 14.3 15.0 15.0 15.0 8.0 10.8 5.2 4.9 5.9 5.6 10.7 15.0 14.7 15.0 15.0 14.2 15.0 8.2 14.2 4.9 15.0 14.2 9.3 5.2 5.0 5.1 4.9
0.3 0.1 0.1 0.1 0.1 0.7 0.7 0.2 0.1 0.1 0.3 0.1 0.2 0.9 2.8 1.0 0.9 0.3 7.9 15.0 4.2 4.1 4.1 4.1 4.2 4.3 12.0 4.7 5.3 15.0 14.3 5.3 5.3 5.7 11.5 4.6 4.8 15.0 15.0 12.7 15.0 13.5 5.3 14.4 15.0 15.0 15.0 6.9 7.4 4.5 4.8 4.6 5.0 10.8
0.2 0.2 0.3 0.8 0.3 0.9 0.1 0.1 0.1 0.4 0.5 0.6 4.7 3.7 2.3 3.8 1.5 15.0 15.0 15.0 7.9 4.1 3.2 7.2 8.3 4.5 5.6 8.8 15.0 15.0 15.0 4.8 5.2 6.0 13.8 4.1 4.7 15.0 15.0 15.0 15.0 15.0 4.6 8.8 15.0 12.4 11.3 4.1 4.1 4.1 9.7 15.0 13.3 10.5
0.1 0.7 15.0 15.0 15.0 15.0 15.0 15.0 15.0 15.0 10.3 15.0 5.2 2.1 3.8 11.2 15.0 15.0 14.1 9.1 5.5 4.1 4.1 4.1 6.1 11.9 15.0 4.9 4.4 4.2 4.1 4.3 15.0 12.8 4.9 4.1 4.0 4.1 15.0 15.0 15.0 9.9 4.3 9.6 10.8 4.7 4.2 6.3 4.3 4.3 5.3 8.8 4.2 4.2
6.4 15.0 15.0 15.0 15.0 15.0 15.0 15.0 15.0 15.0 15.0 15.0 15.0 9.9 15.0 15.0 15.0 15.0 15.0 5.9 4.1 4.1 4.1 4.1 4.1 4.1 12.3 4.6 4.1 13.6 13.7 4.7 4.1 4.1 7.7 5.8 4.1 5.3 15.0 5.9 13.5 15.0 13.5 12.3 4.2 4.1 3.5 2.9 3.1 3.2 2.9 2.5 4.3 5.9
15.0 15.0 14.6 1.4 3.5 1.7 0.6 2.2 14.4 13.7 15.0 15.0 15.0 15.0 15.0 15.0 5.7 4.2 6.7 4.9 4.1 14.6 15.0 15.0 4.3 4.1 5.3 5.6 4.6 4.4 10.1 14.7 15.0 15.0 15.0 15.0 15.0 13.5 5.0 5.6 4.3 7.9 4.5 3.6 13.1 14.4 3.4 0.8 0.7 0.4 0.2 0.3 1.4 2.1
2.2 1.6 0.2 0.2 2.8 3.6 3.6 3.5 14.8 13.2 15.0 9.7 13.9 12.7 14.8 4.4 4.1 4.1 5.1 5.1 15.0 15.0 13.7 14.0 11.1 15.0 15.0 15.0 15.0 15.0 9.1 4.7 10.6 15.0 15.0 15.0 15.0 14.8 4.7 4.1 4.3 8.9 4.1 3.9 3.3 3.8 10.8 0.3 3.0 3.6 0.9 10.0 9.3 4.6
0.2 0.4 1.1 4.1 3.2 1.9 2.6 9.6 15.0 15.0 15.0 15.0 11.6 15.0 9.4 9.7 15.0 6.1 11.6 4.1 4.2 11.5 15.0 15.0 15.0 10.6 15.0 15.0 15.0 15.0 15.0 13.9 4.4 4.2 4.4 4.2 4.1 4.1 4.1 4.8 7.5 4.2 2.7 1.1 0.8 0.9 0.9 1.2 2.2 2.6 3.3 3.8 3.9 4.7
0.2 0.9 15.0 5.7 1.6 4.2 7.7 7.6 5.0 9.5 15.0 15.0 15.0 7.0 15.0 15.0 15.0 15.0 5.1 4.1 5.6 15.0 14.5 15.0 15.0 15.0 15.0 15.0 13.8 6.7 14.8 4.8 4.2 6.4 5.1 3.9 3.4 4.5 4.0 3.8 4.1 2.3 0.9 0.4 0.7 1.5 2.2 1.9 2.0 2.8 2.5 3.0 4.0 4.0
0.2 1.9 8.1 6.5 3.6 12.1 8.4 15.0 15.0 15.0 15.0 15.0 11.1 6.2 6.5 11.6 15.0 15.0 8.2 4.6 13.6 15.0 9.8 15.0 15.0 8.2 15.0 14.7 15.0 1.7 10.8 8.6 0.2 8.5 11.2 13.6 14.9 13.2 15.0 3.6 1.5 1.9 0.9 1.2 2.9 2.5 2.5 2.0 1.9 2.2 2.1 1.7 1.7 1.5